GW2943 Weather Reports


time (UTC)temp
F
wind
direction
speed
knots
gust
knots
rain 1hr
in
rain 24hr
in
rain mn
in
humidity
%
barometer
mb
20260503010027 52 159 3.5 7.8 0.00 0.00 0.00 44 1009.6
20260503004527 52 157 5.2 9.6 0.00 0.00 0.00 43 1009.7
20260503003032 53 160 3.5 8.7 0.00 0.00 0.00 43 1009.9
20260503001524 54 163 4.3 8.7 0.00 0.00 0.00 42 1010.0
20260503000029 55 139 8.7 11.3 0.00 0.00 0.00 41 1010.2
20260502234542 55 338 1.7 2.6 0.00 0.00 0.00 40 1010.2
20260502233021 55 304 0.9 2.6 0.00 0.00 0.00 40 1010.5
20260502231526 55 239 1.7 6.1 0.00 0.00 0.00 41 1010.6
20260502230022 55 240 1.7 6.1 0.00 0.00 0.00 41 1010.8
20260502224518 57 192 0.9 3.5 0.00 0.00 0.00 36 1010.9
20260502223033 57 278 0.0 2.6 0.00 0.00 0.00 38 1011.0
20260502221512 56 276 0.9 6.1 0.00 0.00 0.00 41 1011.2
20260502220012 56 291 1.7 3.5 0.00 0.00 0.00 36 1011.3
20260502214509 57 263 2.6 8.7 0.00 0.00 0.00 34 1011.4
20260502213006 57 259 5.2 10.4 0.00 0.00 0.00 35 1011.7
20260502211503 56 254 3.5 9.6 0.00 0.00 0.00 36 1011.9
20260502210001 56 275 4.3 10.4 0.00 0.00 0.00 34 1012.2
20260502204600 57 304 5.2 10.4 0.00 0.00 0.00 32 1012.2
20260502203114 56 265 6.1 11.3 0.00 0.00 0.00 31 1012.5
20260502201553 55 286 2.6 9.6 0.00 0.00 0.00 35 1012.9
20260502200056 54 284 3.5 8.7 0.00 0.00 0.00 34 1013.2
20260502194552 54 266 1.7 7.8 0.00 0.00 0.00 35 1013.4
20260502193049 54 266 5.2 10.4 0.00 0.00 0.00 35 1013.5
20260502191548 55 288 4.3 7.8 0.00 0.00 0.00 34 1013.9
20260502190044 54 244 5.2 8.7 0.00 0.00 0.00 35 1014.3
20260502184540 53 286 4.3 11.3 0.00 0.00 0.00 35 1014.5
20260502183038 53 298 3.5 11.3 0.00 0.00 0.00 38 1014.5
20260502181535 52 246 5.2 10.4 0.00 0.00 0.00 35 1014.7
20260502163033 49 236 2.6 9.6 0.00 0.00 0.00 41 1016.6
20260502161520 48 251 2.6 8.7 0.00 0.00 0.00 42 1016.8
20260502151558 46 259 2.6 6.1 0.00 0.00 0.00 48 1017.4
20260502123020 27 53 0.0 0.0 0.00 0.00 0.00 92 1018.8
20260502121512 25 53 0.0 0.0 0.00 0.00 0.00 93 1018.9
20260502114511 23 53 0.0 0.0 0.00 0.00 0.00 92 1018.9
20260502113010 23 53 0.0 0.0 0.00 0.00 0.00 92 1018.9
20260502111509 22 53 0.0 0.0 0.00 0.00 0.00 92 1018.9
20260502110007 22 53 0.0 0.0 0.00 0.00 0.00 91 1018.9
20260502104513 23 52 0.0 0.0 0.00 0.00 0.00 92 1019.0
20260502103005 23 52 0.0 0.0 0.00 0.00 0.00 92 1019.1
20260502101503 23 52 0.0 0.0 0.00 0.00 0.00 91 1019.0
20260502090104 24 52 0.0 0.0 0.00 0.00 0.00 91 1019.2
20260502080110 25 52 0.0 0.0 0.00 0.00 0.00 90 1019.4
20260502070104 26 52 0.0 0.0 0.00 0.00 0.00 88 1019.8
20260502064551 26 52 0.0 0.0 0.00 0.00 0.00 88 1019.9
20260502063050 26 52 0.0 0.0 0.00 0.00 0.00 87 1019.8
20260502061546 26 52 0.0 0.0 0.00 0.00 0.00 86 1019.8
20260502060050 26 52 0.0 0.0 0.00 0.00 0.00 85 1019.9
20260502054545 27 52 0.0 0.0 0.00 0.00 0.00 84 1019.9
20260502053042 27 52 0.0 0.0 0.00 0.00 0.00 82 1020.0
20260502051551 27 52 0.0 0.0 0.00 0.00 0.00 81 1020.0
20260502050043 28 52 0.0 0.0 0.00 0.00 0.00 81 1020.0
20260502044543 28 52 0.0 0.0 0.00 0.00 0.00 80 1020.0
20260502043041 28 51 0.0 0.0 0.00 0.00 0.00 80 1020.0
20260502041537 29 51 0.0 0.0 0.00 0.00 0.00 79 1020.0
20260502040037 30 51 0.0 0.0 0.00 0.00 0.00 79 1020.2
20260502034537 31 51 0.0 0.0 0.00 0.00 0.00 77 1020.1
20260502033036 31 51 0.0 0.0 0.00 0.00 0.00 76 1020.2
20260502031535 32 51 0.0 0.0 0.00 0.00 0.00 73 1020.1
20260502030039 33 51 0.0 0.0 0.00 0.00 0.00 69 1020.1
20260502024535 35 51 0.0 0.0 0.00 0.00 0.00 69 1020.1
20260502023035 36 51 0.0 0.0 0.00 0.00 0.00 64 1020.0
20260502021536 38 51 0.0 0.0 0.00 0.00 0.00 59 1020.0
20260502020034 39 51 0.0 0.0 0.00 0.00 0.00 56 1019.9
20260502014536 40 51 0.0 0.0 0.00 0.00 0.00 52 1019.8
20260502013034 41 51 0.0 2.6 0.00 0.00 0.00 48 1019.7
20260502011534 42 50 1.7 4.3 0.00 0.00 0.00 51 1019.5